#timestamp,LO_Frequency,Hit,StdDev 
1503907215.1,286046999.9,N,1.1
1503907235.9,286047000.8,N,1.1
1503907255.7,286046999.9,N,1.1
1503907275.5,286047000.4,N,1.1
1503907295.4,286046999.8,N,1.1
1503907315.2,286047002.5,N,1.1
1503907335.0,286047000.0,N,1.1
1503907335.9,286047000.0,N,1.1
1503907355.8,286046999.7,N,1.0
1503907375.6,286047000.6,N,1.0
1503907395.4,286047000.7,N,1.0
1503907415.3,286047000.6,N,1.0
1503907435.1,286047002.8,N,1.1
1503907455.8,286046999.8,N,1.1
1503907475.7,286047000.3,N,1.1
1503907495.5,286047000.3,N,1.1
1503907515.3,286046999.7,N,1.1
1503907535.2,286047002.7,N,1.1
1503907555.0,286047000.1,N,1.1
1503907555.9,286047000.1,N,1.1
1503907575.8,286047000.6,N,1.1
1503907595.6,286047002.6,N,1.1
1503907615.4,286047000.4,N,1.1
1503907635.3,286047000.2,N,1.1
1503907655.1,286047000.8,N,1.0
1503907656.0,286047000.8,N,1.0
1503907675.8,286046998.7,N,1.0
1503907695.7,286046998.5,N,1.1
1503907715.5,286046998.2,N,1.1
1503907735.3,286046998.5,N,1.1
1503907755.2,286046998.8,N,1.2
1503907775.0,286046998.4,N,1.2
1503907775.9,286046998.4,N,1.3
1503907795.7,286046996.9,N,1.4
1503907815.6,286046997.0,N,1.5
1503907835.4,286046996.6,N,1.5
1503907855.2,286046996.5,N,1.6
1503907875.1,286046997.4,N,1.7
1503907876.0,286046997.4,N,1.7
1503907895.8,286046997.9,N,1.7
1503907915.7,286046997.0,N,1.8
1503907935.5,286046998.0,N,1.8
1503907955.3,286046996.8,N,1.7
1503907975.2,286046997.1,N,1.7
1503907995.9,286046997.9,N,1.7
1503908015.7,286046995.6,N,1.8
1503908035.6,286046994.9,N,1.9
1503908055.4,286046997.1,N,1.7
1503908075.2,286046996.8,N,1.7
1503908095.1,286046995.2,N,1.8
1503908096.0,286046995.2,N,1.8
1503908115.8,286046996.3,N,1.5
1503908135.6,286046995.9,N,1.5
1503908155.5,286046995.8,N,1.4
1503908175.3,286046996.2,N,1.3
1503908195.1,286046996.0,Y,0.0
1503908215.9,286046996.7,P,0.2
1503908235.7,286046997.4,P,0.3
1503908255.5,286046995.3,P,0.8
1503908275.4,286046994.9,Y,0.0
1503908295.2,286047000.5,P,1.9
1503908315.1,286046998.1,N,1.6
1503908316.0,286046998.1,N,1.4
1503908335.8,286047000.3,N,1.5
1503908355.6,286046999.8,N,1.4
1503908375.5,286047000.5,N,1.4
1503908395.3,286047001.1,N,1.5
1503908415.1,286046998.2,N,1.4
1503908435.9,286046998.8,N,1.4
1503908455.7,286046998.8,N,1.3
1503908475.5,286046998.7,N,1.3
1503908495.4,286047000.3,N,1.2
1503908515.2,286046998.1,N,1.2
1503908535.0,286046998.7,N,1.2
1503908535.9,286046998.7,N,1.2
1503908555.8,286046998.8,N,1.1
1503908575.6,286046996.9,N,1.2
1503908595.4,286046997.2,N,1.2
1503908615.3,286046996.5,N,1.3
1503908635.1,286046999.3,N,1.3
1503908655.8,286042493.9,Y,0.0
1503908675.7,286046998.9,P,0.1
1503908695.5,286046998.9,P,0.1
1503908715.3,286046999.3,P,0.2
1503908735.2,286046998.8,Y,0.0
1503908755.0,286047001.2,P,1.1
1503908755.9,286047001.2,N,1.1
1503908775.8,286047000.7,N,0.9
1503908795.6,286046998.5,N,1.2
1503908815.4,286047000.6,N,1.1
1503908835.3,286047001.0,N,1.0
1503908855.1,286047000.7,N,1.0
1503908856.0,286047000.7,N,0.9
1503908875.8,286047001.2,N,0.9
1503908895.7,286046998.3,N,1.1
1503908915.5,286046998.3,N,1.2
1503908935.3,286046998.7,N,1.2
1503908955.2,286046999.4,N,1.1
1503908975.9,286046998.5,N,1.2
1503908995.7,286046999.3,N,1.1
1503909015.6,286046999.4,N,1.1
1503909035.4,286046998.8,N,1.1
1503909055.2,286046999.3,N,1.1
1503909075.1,286046999.6,N,1.0
1503909076.0,286046999.6,N,1.0
1503909095.8,286046997.1,N,1.1
1503909115.6,286046997.0,N,1.2
1503909135.5,286046996.9,N,1.3
1503909155.3,286046997.0,N,1.4
1503909175.1,286046996.6,N,1.4
1503909195.9,286046998.2,N,1.4
1503909215.7,286046998.3,N,1.4
1503909235.5,286046999.1,N,1.4
1503909255.4,286046999.5,N,1.4
1503909275.2,286046998.4,N,1.4
1503909295.0,286046998.6,N,1.3
1503909296.0,286046998.6,N,1.2
1503909315.8,286046999.1,N,1.2
1503909335.6,286046999.0,N,1.2
1503909355.5,286046998.3,N,1.2
1503909375.3,286046998.5,N,1.1
1503909395.1,286046998.3,N,1.0
1503909415.9,286047000.8,N,1.0
1503909435.7,286046999.0,N,0.9
1503909455.5,286046996.5,Y,0.0
1503909475.4,286046998.5,P,0.0
1503909495.2,286047001.0,P,1.2
1503909515.0,286046998.1,N,1.1
1503909515.9,286046998.1,N,1.1
1503909535.8,286046998.2,N,1.0
1503909555.6,286047001.2,N,1.3
1503909575.4,286046999.3,N,1.2
1503909595.3,286046999.0,N,1.1
1503909615.1,286046998.7,N,1.1
1503909635.8,286046999.6,N,1.0
1503909655.7,286046999.5,N,1.0
1503909675.5,286046999.5,N,1.0
1503909695.4,286046996.5,Y,0.0
1503909715.2,286046999.2,P,0.0
1503909735.0,286046998.4,P,0.4
1503909735.9,286046998.4,P,0.4
1503909755.8,286046999.3,N,0.4
1503909775.6,286046998.7,Y,0.0
1503909795.4,286047000.9,P,1.0
1503909815.3,286046999.8,N,0.8
1503909835.1,286047002.3,N,1.3
1503909855.8,286046999.7,N,1.2
1503909875.7,286046999.7,N,1.1
1503909895.5,286047002.2,N,1.2
1503909915.3,286047000.1,N,1.2
1503909935.2,286047001.8,N,1.2
1503909955.0,286047002.3,N,1.2
1503909955.9,286047002.3,N,1.2
1503909975.8,286047001.8,N,1.2
1503909995.6,286047001.4,N,1.2
1503910015.4,286047001.6,N,1.1
1503910035.3,286047002.7,N,1.2
1503910055.1,286047002.7,N,1.2
1503910056.0,286047002.7,N,1.2
1503910075.8,286047002.4,N,1.2
1503910095.7,286047002.4,N,1.2
1503910115.5,286047002.2,N,1.2
1503910135.3,286047001.9,N,1.1
1503910155.2,286047001.6,N,1.1
1503910175.9,286047001.5,N,1.1
1503910195.7,286047001.4,N,1.1
1503910215.6,286047001.3,N,1.1
1503910235.4,286047003.9,Y,0.0
1503910255.2,286046999.7,P,0.9
1503910275.1,286047000.3,N,0.8
1503910276.0,286047000.3,N,0.7
1503910295.8,286047002.8,Y,0.0
1503910315.6,286047000.8,P,0.2
1503910335.5,286047000.3,N,0.2
1503910355.3,286047002.8,P,1.0
1503910375.1,286047002.8,N,1.1
1503910395.9,286047002.6,N,1.1
1503910415.7,286046999.8,N,1.2
1503910435.5,286047002.7,N,1.2
1503910455.4,286047000.3,N,1.2
1503910475.2,286046999.9,N,1.2
1503910495.0,286047000.3,N,1.2
1503910496.0,286047000.3,N,1.2
1503910515.8,286047002.0,N,1.2
1503910535.6,286047002.8,N,1.2
1503910555.5,286046999.7,N,1.2
1503910575.3,286047002.8,N,1.2
1503910595.1,286047002.7,N,1.3
1503910615.9,286047002.3,N,1.2
1503910635.7,286047002.3,N,1.2
1503910655.5,286047002.3,N,1.2
1503910675.4,286047002.5,N,1.2
1503910695.2,286047002.3,N,1.2
1503910715.0,286047002.2,N,1.2
1503910715.9,286047002.2,N,1.1
1503910735.8,286046999.8,N,1.2
1503910755.6,286047002.5,N,1.2
1503910775.4,286047000.1,N,1.2
1503910795.3,286047002.4,N,1.2
